Regional Weather Roundup
Issued by NWS Jackson, KY

Home | Current Version | Previous Version | Graphics & Text | Print | Product List | Glossary On
Versions: 1 2 3 4 5 6 7 8 9 10 11 12 13 14 15 16 17 18 19 20 21 22 23 24 25 26 27 28 29 30 31 32 33 34 35 36 37 38 39 40 41 42 43 44 45 46 47 48 49 50
000
ASUS43 KJKL 190210
RWRJKL

EAST KENTUCKY HOURLY WEATHER ROUNDUP
NATIONAL WEATHER SERVICE JACKSON KY
1000 PM EDT THU SEP 18 2014

NOTE: "FAIR" INDICATES FEW OR NO CLOUDS BELOW 12,000 FEET WITH
NO SIGNIFICANT WEATHER AND/OR OBSTRUCTIONS TO VISIBILITY.

* THESE REPORTS ARE NOT UNDER NWS QUALITY CONTROL AND MAY NOT
  REPORT WEATHER SUCH AS PRECIPITATION AND FOG.

KYZ079-080-083-085-087-088-110-112-115-119-120-190300
...EASTERN KENTUCKY...

CITY           SKY/WX    TMP DP  RH WIND       PRES   REMARKS
JACKSON        CLEAR     62  52  69 CALM      30.09R
LONDON         CLEAR     62  54  74 N5        30.08R
MONTICELLO*    CLEAR     58  56  93 CALM      30.08R
MIDDLESBORO*   CLEAR     61  57  87 CALM      30.08R
HARLAN APT*    CLEAR     59  57  94 MISG      30.09R
HAZARD APT*    CLEAR     59  55  88 CALM      30.10R
BLACK MTN*       N/A     54  52  94 CALM        N/A
PIKEVILLE APT* CLEAR     61  54  77 NE6       30.10R
BIG SANDY*     CLEAR     58  55  91 CALM      30.10R
MOREHEAD APT*  PTCLDY    61  50  67 NE5       30.12R
$$

KYZ035-036-041-042-044-050-067-078-099-190300
...CENTRAL KENTUCKY...

CITY           SKY/WX    TMP DP  RH WIND       PRES   REMARKS
MT STERLING*   CLEAR     57  54  88 E5        30.12R
FLEMING/MASON* CLEAR     57  50  77 E5        30.12R
DANVILLE*      CLEAR     55  52  88 CALM      30.09R
RICHMOND*      CLEAR     61  54  77 E3        30.08R
LEXINGTON      CLEAR     63  50  62 E8        30.09R
FRANKFORT      CLEAR     57  52  83 N3        30.08R
$$

KYZ091>093-OHZ055-061-077-WVZ005-015-034-035-042-190300
...SOUTHERN OHIO/WEST VIRGINIA...

CITY           SKY/WX    TMP DP  RH WIND       PRES   REMARKS
COVINGTON      CLEAR     63  46  54 E8        30.11R
COLUMBUS       PTCLDY    62  49  62 NE10      30.14R
DAYTON         PTCLDY    58  49  72 NE6       30.14R
WILMINGTON     CLEAR     56  46  69 E5        30.13R
HUNTINGTON     CLEAR     59  51  75 NE5       30.09R
CHARLESTON     PTCLDY    60  57  89 CALM      30.10R
PINEVILLE*     MOCLDY    59  59 100 MISG      30.15R FOG
BECKLEY        MOCLDY    59  51  75 N3        30.13R
BLUEFIELD      CLOUDY    62  51  67 CALM      30.13R
$$

VAZ002-007-008-TNZ017-027-036-066-071-190300
...SOUTHWEST VIRGINIA/EAST TENNESSEE...

CITY           SKY/WX    TMP DP  RH WIND       PRES   REMARKS
WISE*          CLEAR     57  52  82 NE5       30.14R
JONESVILLE*    CLEAR     59  57  94 CALM      30.10R
ABINGDON*      MOCLDY    65  56  72 E3        30.10R
BRISTOL        PTCLDY    63  54  72 CALM      30.07R
KNOXVILLE      MOCLDY    68  56  65 N6        30.02R
OAK RIDGE      PTCLDY    65  61  87 CALM      30.06R
CROSSVILLE     MOCLDY    64  57  78 NE5       30.08R
NASHVILLE      PTCLDY    68  60  75 N6        30.03R
$$

...KEY TO REMARKS...
VSB - VISIBILITY IN MILES
WCI - WIND CHILL INDEX
HX  - HEAT INDEX

$$


USA.gov is the U.S. government's official web portal to all federal, state and local government web resources and services.